Location: ??????
(55.7522°N, 37.6156°E)
Time: 17:09:31
(UTC+00:00)

Okean 1 Rocket - Pass Details

Date: 14 June 2025
Orbit: 601 x 627 km, 82.5° (Epoch: 13 July)

Event Time Altitude Azimuth Distance (km) Brightness Sun altitude
Rises 22:49:32 0° 347° (NNW) 2,929 7.6 -9.1°
Reaches altitude 10° 22:51:47 10° 348° (NNW) 2,018 6.7 -9.0°
Maximum altitude 22:56:16 89° 281° (WNW) 637 3.1 -8.8°
Drops below altitude 10° 23:00:43 10° 170° (S) 2,001 5.2 -8.6°
Enters shadow 23:01:18 - 170° (S) 2,237 5.4 -8.6°
